TimeCST,TemperatureF,Dew PointF,Humidity,Sea Level PressureIn,VisibilityMPH,Wind Direction,Wind SpeedMPH,Gust SpeedMPH,PrecipitationIn,Events,Conditions,WindDirDegrees,DateUTC
12:53 AM,-9.0,-18.0,65,30.28,10.0,West,5.8,-,N/A,,Clear,260,2014-02-26 06:53:00
1:53 AM,-9.9,-20.0,61,30.26,10.0,Variable,4.6,-,N/A,,Clear,0,2014-02-26 07:53:00
2:53 AM,-11.0,-20.9,62,30.23,10.0,WSW,4.6,-,N/A,,Scattered Clouds,250,2014-02-26 08:53:00
3:53 AM,-11.9,-20.9,64,30.19,10.0,Variable,4.6,-,N/A,,Scattered Clouds,0,2014-02-26 09:53:00
4:53 AM,-13.0,-20.0,71,30.15,10.0,Variable,3.5,-,N/A,,Partly Cloudy,0,2014-02-26 10:53:00
5:53 AM,-13.0,-20.0,71,30.09,10.0,Variable,4.6,-,N/A,,Overcast,0,2014-02-26 11:53:00
6:53 AM,-11.0,-18.0,71,30.05,10.0,Variable,5.8,-,N/A,,Overcast,0,2014-02-26 12:53:00
7:53 AM,-9.9,-17.0,71,29.99,10.0,SSW,8.1,-,N/A,,Overcast,210,2014-02-26 13:53:00
8:53 AM,-6.0,-15.0,65,29.94,10.0,WSW,6.9,-,N/A,,Mostly Cloudy,240,2014-02-26 14:53:00
9:53 AM,-2.9,-13.0,62,29.87,10.0,Variable,6.9,20.7,N/A,,Mostly Cloudy,0,2014-02-26 15:53:00
10:53 AM,-0.0,-11.0,60,29.81,10.0,SW,11.5,19.6,N/A,,Mostly Cloudy,220,2014-02-26 16:53:00
11:53 AM,3.9,-8.0,58,29.66,10.0,SSW,17.3,28.8,N/A,,Mostly Cloudy,200,2014-02-26 17:53:00
12:53 PM,8.1,-5.1,55,29.65,10.0,SW,10.4,24.2,N/A,,Overcast,230,2014-02-26 18:53:00
1:53 PM,10.0,-4.0,53,29.62,10.0,West,13.8,26.5,N/A,,Overcast,260,2014-02-26 19:53:00
2:35 PM,10.0,-0.9,61,29.50,2.5,WSW,15.0,24.2,0.00,Snow,Light Snow,250,2014-02-26 20:35:00
2:50 PM,10.4,-0.4,62,29.49,4.0,WSW,12.7,21.9,0.00,Snow,Light Snow,250,2014-02-26 20:50:00
2:53 PM,10.9,-0.0,61,29.59,4.0,WSW,12.7,23.0,0.00,Snow,Light Snow,250,2014-02-26 20:53:00
3:04 PM,10.9,-0.0,61,29.49,3.0,WSW,10.4,20.7,0.00,Snow,Light Snow,250,2014-02-26 21:04:00
3:49 PM,10.4,1.4,67,29.48,2.5,WSW,8.1,18.4,0.00,Snow,Light Snow,250,2014-02-26 21:49:00
3:53 PM,10.9,1.9,67,29.57,2.0,West,9.2,18.4,0.00,Snow,Light Snow,260,2014-02-26 21:53:00
4:12 PM,10.9,3.9,73,29.48,1.0,West,9.2,18.4,0.00,Snow,Light Snow,270,2014-02-26 22:12:00
4:31 PM,10.9,5.0,77,29.47,0.8,Variable,4.6,-,0.00,Snow,Light Snow,0,2014-02-26 22:31:00
4:35 PM,10.9,5.0,77,29.47,1.2,WSW,8.1,-,0.00,Snow,Light Snow,250,2014-02-26 22:35:00
4:43 PM,12.0,5.0,73,29.47,3.0,WSW,6.9,-,0.00,Snow,Light Snow,250,2014-02-26 22:43:00
4:53 PM,12.0,1.9,64,29.57,9.0,West,10.4,17.3,0.00,,Overcast,270,2014-02-26 22:53:00
5:49 PM,10.4,1.4,67,29.50,2.5,Variable,6.9,20.7,0.00,Snow,Light Snow,0,2014-02-26 23:49:00
5:53 PM,10.0,1.9,70,29.61,3.0,WNW,8.1,20.7,0.00,Snow,Light Snow,290,2014-02-26 23:53:00
5:58 PM,10.0,1.9,70,29.51,1.8,WNW,13.8,23.0,0.00,Snow,Light Snow,300,2014-02-26 23:58:00
6:10 PM,9.0,1.0,70,29.52,3.0,WNW,9.2,19.6,0.00,Snow,Light Snow,290,2014-02-27 00:10:00
6:29 PM,8.1,-2.0,64,29.53,6.0,NW,11.5,26.5,0.00,,Haze,310,2014-02-27 00:29:00
6:53 PM,7.0,-8.0,51,29.65,10.0,WNW,9.2,19.6,0.00,,Partly Cloudy,300,2014-02-27 00:53:00
7:53 PM,6.1,-9.0,50,29.68,10.0,WNW,10.4,21.9,N/A,,Scattered Clouds,300,2014-02-27 01:53:00
8:15 PM,5.0,-5.1,63,29.59,1.0,WNW,13.8,27.6,0.00,Snow,Light Snow,300,2014-02-27 02:15:00
8:22 PM,3.9,-2.0,76,29.60,0.2,NW,9.2,27.6,0.00,Snow,Heavy Snow,320,2014-02-27 02:22:00
8:35 PM,3.0,-6.0,66,29.61,1.2,NW,8.1,26.5,0.00,Snow,Light Snow,320,2014-02-27 02:35:00
8:42 PM,3.0,-8.0,60,29.62,3.0,NNW,8.1,24.2,0.00,Snow,Light Snow,330,2014-02-27 02:42:00
8:53 PM,1.9,-9.9,58,29.74,8.0,NW,8.1,21.9,0.00,,Overcast,320,2014-02-27 02:53:00
9:53 PM,-0.9,-17.0,47,29.79,10.0,North,-9999.0,-,0.00,,Clear,0,2014-02-27 03:53:00
10:53 PM,-4.0,-18.0,51,29.83,10.0,Variable,6.9,-,N/A,,Clear,0,2014-02-27 04:53:00
11:53 PM,-6.0,-18.9,54,29.88,10.0,Variable,5.8,20.7,N/A,,Clear,0,2014-02-27 05:53:00